STARLINK-11175, 60191

Orbit data source: Space-Track

STARLINK-11175, 60191 is a payload satellite in LEO that was launched on Wed, 03 Jul 2024 UTC via an FALCON 9 launch vehicle from the Air Force Eastern Test Range (AFETR). Payload-class satellites include a variety of spacecraft equipped with specific instruments for various scientific and technological missions. These include communications satellites like Starlink; space stations such as the ISS; scientific satellites like the Hubble; Earth observation satellites from companies like Planet Labs, Umbra, and HawkEye 360; GPS; miniature CubeSats for education and research; and military/defense satellites.

Loading next visibility...
Identifier
60191, 2024-124J
Orbit
LEO
Last TLE update
1 day ago
Origin
Manufacturer
SpaceX/Seattle
Mission
Operational Commercial Communications
Bus & Motor
STARLINK V2M, Unknown motor
Mass
730 kg wet, ~700 kg dry
Launch date (UTC)
2024-07-03 (11 months ago)
Launch vehicle
FALCON 9
Launch site
Air Force Eastern Test Range (AFETR)
Object type
Payload
Rocket body
Debris
Shape & HBR
Box + 2 Pan, 29 m
Radar Cross Section
36.964 m², Large (>1 m²)

Expand to show TLE details & history

TLE from 1 day ago
0 STARLINK-11175
1 60191U 24124J   25138.27865544 -.00001602  00000-0 -83747-5 0  9995
2 60191  53.1581 177.7287 0000941  92.4591 267.6534 15.69695594 50136
Epoch: 2025-05-18T06:41Z
TLE epoch observation values (Epoch: 2025-05-18T06:41:15.83Z)
Latitude
-0.00005°
Longitude
-158.79521°
Altitude
360.709 km
Speed
7.694 km/s
True Right ascension
11h 50m 54s
True Declination
0° 00' 00"
Sunlit
Object was in full shadow at epoch
Visualization orbit readout
Latitude
13.16864°
Longitude
-154.73604°
Altitude
359.819 km
Speed
7.696 km/s
Apparent Right ascension
10h 38m 17s
Apparent Declination
-13° 52' 55"
Sunlit
Object is in full shadow
Visualization observer readout
Local Sidereal Time
20:36:35
Azimuth
305.689° NW
Elevation
-52.749°
Doppler factor
1
Orbital elements
Apogee altitude
360.663 km
Perigee altitude
359.395 km
Semi-major axis
6,738.166 km
Eccentricity
0.00009
Inclination
53.1581°
RAAN
177.7287°
Arg. of periapsis
92.4591°
True anomaly
Unknown
Mean anomaly
267.6534°
Eccentric anomaly
Unknown
Mean motion
3.92401 °/min
Orbital period
91.74 mins
BSTAR
-0.0000083747
Loading maneuver chart data...
Loading SW <> Apogee altitude chart data...
Loading historical data...
Loading historical data...
Loading historical data...
Loading historical data...
Loading historical data...
Loading historical data...
Loading historical data...

STARLINK-11175 Visibility forecast

Observer location: undefined°, undefined°

Span
Click to sort rows by Start time (UTC) header in descending order
Start Az.
Max El. time (UTC)
Max El. Az.
Max El.
End time (UTC)
End Az.
5 mins2025-05-19 12:13:27.325Z302.699° NW2025-05-19 12:16:27.325Z177.445° S38.244°2025-05-19 12:18:27.325Z143.095° SSE
4 mins2025-05-20 04:43:27.325Z213.941° SW2025-05-20 04:44:27.325Z190.699° SSW38.729°2025-05-20 04:47:27.325Z56.063° ENE
|